Temperature
7 5 5 5 5 6 6 6 5 6 6 5 4 4 5 5 4 4 4 4 5 5 6 6 6 6 6 6 6 6 6 6 6 5 5 5 5 5 6 6 6 6 6 6
5 5 5 6 6 6 6 5 5 5 5 5 3 4 4 3 3 4 4 4 4 5 5 5 5 5 6 6 6 5 5 5 5 5 5 5 5 5 5 5 5 5 5 5
5 5 5 5 5 5 5 5 5 5 4 4 3 4 4 3 3 3 4 4 4 4 4 5 5 5 5 5 5 5 5 5 4 4 4 4 4 4 4 4 4 4 5 5
4 4 5 5 5 5 5 5 5 5 4 3 3 4 4 3 2 2 3 3 4 4 4 4 4 4 4 4 4 4 4 4 4 4 4 4 4 4 4 4 4 4 4 4
4 4 5 5 5 5 4 4 4 4 3 2 2 2 3 2 3 3 2 3 3 4 4 4 4 4 4 4 4 4 3 3 3 3 3 3 3 3 3 3 3 3 3 3
3 4 4 4 4 4 3 3 3 2 2 3 2 2 3 2 2 2 2 2 3 3 3 3 3 3 3 3 3 3 3 3 3 3 3 3 3 3 3 3 3 3 3 3
4 4 3 4 4 3 3 3 3 3 2 3 2 2 2 2 1 1 1 1 2 2 2 3 3 3 3 3 3 3 2 2 2 2 2 2 2 2 2 2 2 2 2 2
3 3 3 3 3 3 3 3 3 3 3 2 1 1 2 1 0 1 1 1 1 1 2 2 2 2 2 2 2 2 2 2 2 2 2 2 1 1 1 1 1 1 1 1
3 3 3 3 3 3 2 2 2 2 1 1 1 0 1 0 0 -0 -0 0 1 1 1 1 2 2 2 2 2 1 1 1 1 1 1 1 1 1 1 1 1 1 1 1
2 2 2 2 2 2 2 1 0 1 2 2 1 1 1 1 1 0 -1 -1 0 1 1 1 1 1 1 1 1 1 1 1 1 1 1 0 0 0 0 -0 0 -0 -0 0
1 1 1 1 1 2 1 1 1 0 1 1 1 2 1 1 1 -0 -1 -1 -0 0 1 0 1 1 1 1 0 0 0 0 -0 -0 -0 -0 -0 -1 -1 -1 -1 -1 -1 -1
0 0 0 1 0 0 1 1 -0 1 0 -1 -0 1 0 -1 -1 -1 -1 -0 -0 -0 -0 -0 0 0 0 -0 -0 -0 -0 -1 -1 -1 -1 -1 -1 -1 -1 -1 -1 -1 -1 -1
0 0 1 2 1 -1 -1 -1 -1 -0 -1 -2 -1 1 -0 -2 -2 -2 -1 -1 -0 -0 -0 -0 -1 -1 -1 -1 -1 -1 -1 -1 -1 -2 -2 -2 -2 -2 -2 -2 -2 -2 -2 -2
1 -0 1 2 2 0 -1 -1 -2 -1 -1 -1 -1 0 -0 -1 -1 -2 -1 -1 -1 -1 -1 -1 -1 -1 -1 -1 -1 -2 -2 -2 -2 -2 -2 -2 -2 -2 -2 -2 -2 -2 -2 -2
-0 -0 -1 -1 -1 -1 -1 -1 -2 -2 -1 -0 -0 -1 -0 -1 -2 -2 -2 -2 -2 -2 -2 -2 -2 -2 -2 -2 -2 -2 -2 -2 -3 -3 -3 -3 -3 -3 -3 -3 -3 -3 -3 -3
-2 -1 -2 -2 -2 -2 -2 -2 -2 -2 -2 -2 -2 -2 -2 -2 -2 -3 -3 -3 -3 -2 -2 -2 -3 -3 -3 -3 -3 -3 -3 -3 -3 -3 -3 -4 -4 -4 -4 -4 -4 -4 -4 -4
-3 -2 -2 -1 -3 -2 -2 -2 -2 -3 -4 -3 -2 -1 -3 -4 -4 -4 -3 -3 -3 -3 -3 -3 -3 -3 -3 -3 -4 -4 -4 -4 -4 -4 -4 -4 -4 -5 -4 -4 -4 -4 -4 -4
-3 -2 -2 -3 -3 -1 -0 -3 -3 -3 -4 -5 -4 -4 -5 -5 -4 -4 -3 -3 -3 -3 -4 -4 -4 -4 -4 -4 -4 -4 -5 -5 -5 -5 -5 -5 -5 -5 -5 -5 -5 -5 -5 -5
-3 -2 -3 -3 -3 -2 -2 -4 -5 -4 -4 -5 -5 -5 -6 -5 -5 -5 -3 -4 -4 -4 -4 -5 -5 -5 -5 -5 -5 -5 -5 -6 -6 -6 -6 -6 -6 -6 -6 -6 -6 -6 -6 -6
-4 -3 -3 -3 -2 -2 -1 -5 -5 -5 -4 -5 -6 -6 -6 -7 -6 -5 -4 -5 -5 -5 -5 -6 -6 -6 -6 -6 -6 -6 -6 -6 -6 -6 -7 -7 -7 -7 -7 -7 -7 -7 -7 -7
-4 -4 -4 -3 -3 -3 -5 -6 -5 -3 -3 -5 -6 -6 -7 -7 -6 -6 -6 -6 -6 -6 -6 -7 -7 -7 -7 -7 -7 -7 -7 -7 -7 -8 -8 -8 -8 -8 -8 -8 -8 -8 -8 -8
-4 -5 -5 -4 -4 -3 -7 -7 -5 -5 -6 -6 -6 -7 -7 -7 -7 -7 -7 -7 -7 -7 -7 -7 -8 -8 -8 -8 -8 -8 -8 -8 -8 -8 -8 -8 -8 -9 -9 -9 -9 -9 -9 -9
-6 -5 -5 -5 -4 -6 -7 -7 -6 -6 -6 -7 -7 -7 -7 -8 -8 -8 -8 -8 -8 -8 -8 -9 -9 -9 -9 -9 -9 -9 -9 -9 -9 -9 -9 -9 -9 -9 -9 -9 -9 -9 -9 -10
-7 -9 -8 -8 -7 -8 -7 -7 -7 -7 -7 -7 -7 -8 -8 -8 -8 -9 -9 -9 -9 -9 -9 -9 -9 -10 -10 -10 -10 -10 -10 -10 -10 -10 -10 -10 -10 -10 -10 -10 -10 -10 -10 -10
-8 -10 -9 -9 -9 -9 -8 -7 -7 -7 -7 -7 -8 -8 -8 -9 -9 -9 -9 -10 -10 -10 -10 -10 -10 -10 -11 -11 -11 -11 -11 -11 -11 -11 -11 -11 -11 -11 -11 -11 -11 -11 -11 -11
-10 -10 -9 -7 -7 -9 -8 -7 -7 -8 -8 -8 -8 -9 -9 -9 -9 -10 -10 -10 -10 -11 -11 -11 -11 -11 -11 -11 -11 -12 -12 -12 -12 -12 -12 -12 -12 -11 -11 -11 -11 -11 -11 -11
Wind_Speed
2 2 3 6 7 5 3 4 6 5 2 2 7 11 11 6 5 7 7 6 6 6 4 2 3 4 4 3 3 3 2 2 2 2 1 1 1 0 1 2 2 2 2 2
3 3 6 3 3 3 5 6 7 5 1 2 6 11 9 5 5 6 7 7 7 4 2 3 3 4 4 5 4 4 3 3 3 2 2 1 1 1 1 1 2 2 2 2
6 3 2 2 2 3 5 7 7 6 4 2 5 8 6 4 3 4 5 5 5 6 5 4 4 4 4 4 4 4 4 3 2 2 2 2 1 1 0 1 1 2 1 1
3 4 1 1 3 4 6 4 5 5 2 4 1 6 7 4 5 5 5 5 5 4 4 4 4 4 4 4 3 3 3 3 3 3 3 3 2 2 2 2 1 1 1 1
3 1 1 3 4 4 4 1 2 3 3 4 2 4 9 2 5 6 5 5 4 4 4 4 4 4 3 3 3 3 3 3 2 3 4 3 2 2 1 1 1 1 1 1
4 2 2 3 2 3 2 2 2 2 1 4 6 6 8 4 6 5 4 3 3 2 2 2 1 1 1 1 2 2 2 2 2 3 3 4 3 2 1 1 2 1 1 1
4 3 2 0 1 1 2 2 2 3 2 6 3 5 9 6 5 5 5 4 3 1 1 1 0 0 0 1 2 2 2 2 2 2 2 3 3 4 4 3 3 2 2 2
2 5 2 2 3 3 3 5 5 4 5 5 2 7 7 4 3 3 3 2 1 1 1 1 0 0 1 1 1 2 2 2 3 3 3 2 2 3 3 3 3 3 3 3
3 5 1 0 1 4 3 4 3 3 2 4 6 6 8 3 3 2 1 1 1 1 1 1 0 0 1 1 1 1 2 2 3 3 3 3 3 3 3 3 3 3 3 3
4 4 3 2 1 1 2 4 3 3 3 5 6 6 5 5 6 4 2 2 2 1 1 1 1 1 1 1 1 0 1 2 2 2 3 2 3 3 3 3 3 3 3 3
3 4 4 1 5 6 3 3 3 3 3 4 5 7 5 6 6 5 5 4 3 2 2 2 2 1 1 0 0 1 1 1 1 1 2 2 2 2 2 2 3 3 3 3
3 3 5 6 3 1 5 6 6 4 5 5 5 8 4 4 4 4 5 4 3 2 2 2 1 1 1 1 1 1 1 1 2 1 1 2 1 1 2 2 3 2 3 3
4 3 3 4 2 0 2 4 5 4 2 5 6 8 2 2 3 3 4 4 3 3 2 2 1 2 2 2 2 2 2 2 2 1 1 2 2 2 2 3 3 2 2 3
3 5 7 9 6 3 4 5 6 6 5 7 11 13 10 8 7 6 5 4 4 4 4 3 2 3 3 3 3 3 3 2 1 1 1 2 3 3 3 3 2 2 2 2
3 5 7 9 7 5 8 9 9 11 11 11 12 12 15 10 8 6 5 4 4 5 4 4 3 3 3 3 3 3 3 2 2 2 2 3 3 3 2 2 2 3 2 3
2 4 3 6 5 6 9 11 11 13 11 13 14 16 12 7 4 4 5 4 6 6 5 5 4 4 4 4 4 3 3 2 2 2 3 3 2 2 2 2 2 2 2 2
3 3 3 7 5 5 10 10 11 8 8 9 14 14 7 6 6 6 6 6 7 7 6 5 5 4 4 4 3 3 3 2 2 3 3 2 2 2 3 2 2 3 3 2
5 5 3 3 2 9 8 3 6 9 10 10 9 8 6 8 7 6 6 6 7 6 6 5 4 4 4 3 2 2 1 2 2 2 2 2 2 3 3 2 3 3 3 3
6 6 4 3 6 10 7 2 4 6 9 7 9 10 8 6 5 5 4 3 5 5 4 4 4 4 3 3 2 1 1 1 2 2 3 3 2 3 3 3 3 3 3 3
2 4 4 4 5 8 6 2 2 2 7 4 5 7 6 2 4 6 2 3 3 3 3 3 2 2 2 2 1 1 1 2 3 3 3 3 3 3 4 4 4 3 3 3
3 4 7 8 8 9 5 1 3 3 6 2 2 4 4 5 6 4 4 4 3 2 2 2 1 1 2 2 0 1 2 3 3 2 2 2 3 3 4 3 3 3 3 3
8 6 7 6 7 10 3 5 6 6 2 2 3 2 3 5 4 4 3 3 3 3 2 2 1 2 2 1 0 1 3 3 2 2 2 3 3 3 2 2 3 3 3 3
7 8 6 9 8 2 4 4 3 1 3 3 3 3 2 3 4 4 3 3 3 2 2 2 1 2 3 2 0 2 3 2 1 1 2 3 3 2 2 2 3 2 3 3
4 1 3 5 8 5 5 4 4 3 4 4 3 3 2 3 3 3 3 3 3 2 2 2 2 2 3 3 2 2 3 2 1 2 2 2 2 3 2 2 3 3 3 3
4 4 3 6 6 6 5 5 5 4 3 2 2 2 2 2 2 2 2 2 2 2 2 2 1 2 3 3 3 3 3 2 2 2 2 2 3 3 3 3 3 4 4 5
4 6 6 7 5 5 6 3 2 3 3 3 2 3 2 1 2 2 2 2 2 2 2 2 2 3 3 3 4 4 3 2 2 2 2 2 2 3 3 3 3 5 6 7
Wind_Direction
33 86 220 226 218 224 220 231 258 262 283 249 253 270 279 268 247 248 248 243 238 239 241 196 176 163 153 151 148 152 142 133 118 117 137 157 181 18 43 53 59 67 65 69
49 251 247 239 223 231 242 256 267 282 289 247 282 280 278 262 245 242 242 243 237 235 227 207 187 173 173 175 170 166 165 158 154 154 169 174 165 165 57 44 54 60 73 77
194 245 261 195 219 239 245 235 249 265 328 322 316 295 269 264 251 263 250 240 231 216 216 214 206 198 187 188 187 182 178 169 162 133 115 100 88 85 47 340 341 6 58 86
235 270 251 205 230 209 257 245 239 253 285 282 321 290 281 265 278 271 259 248 235 221 209 209 207 202 196 200 186 176 172 167 163 145 150 152 173 196 223 241 271 330 10 54
256 262 219 230 241 204 233 332 230 237 221 277 241 241 280 294 277 273 262 249 238 221 204 204 208 209 201 183 169 173 166 162 160 165 173 175 192 211 208 215 259 295 326 353
253 265 220 227 250 203 187 46 45 59 107 264 223 206 274 238 237 264 267 258 244 229 222 221 209 166 170 144 144 152 162 171 167 173 183 188 196 196 183 218 234 265 285 285
302 280 277 154 74 27 95 90 354 331 292 254 196 211 252 250 242 240 263 271 276 248 218 219 37 90 191 161 163 165 170 185 182 182 193 204 205 197 203 215 221 232 259 262
280 284 244 209 193 194 199 167 179 229 248 283 257 236 256 264 273 279 270 256 287 281 223 223 236 249 256 205 186 188 193 201 196 198 214 215 217 213 217 219 220 225 237 248
213 262 320 226 243 158 159 201 185 163 251 273 263 277 297 277 290 293 315 7 302 279 252 254 319 317 305 250 225 216 215 216 211 213 217 217 219 226 232 228 226 231 243 256
178 258 278 301 79 2 171 154 124 165 234 265 280 266 255 264 259 268 282 280 282 296 302 270 258 268 276 275 285 245 233 237 230 218 222 227 226 233 240 226 227 234 245 253
164 210 286 302 202 205 162 166 176 178 196 213 272 269 234 232 239 241 250 251 249 256 260 257 259 262 266 326 335 284 276 292 289 259 241 240 241 240 247 238 235 237 244 247
175 169 254 249 237 202 196 200 177 197 238 221 245 270 269 236 248 235 247 249 253 252 260 262 263 273 265 264 267 256 260 260 272 280 266 254 254 246 248 256 249 240 243 248
157 153 296 320 331 12 234 224 205 186 184 210 232 263 294 298 285 261 252 263 272 275 278 283 277 265 260 258 258 258 255 257 273 285 303 298 279 259 251 260 259 246 243 251
162 189 211 232 243 200 234 234 203 185 217 237 237 257 277 283 287 286 278 272 271 269 274 279 275 270 269 264 258 256 263 258 258 251 254 275 271 261 260 262 267 252 241 239
164 233 240 255 263 243 242 242 217 216 223 234 252 252 264 267 265 266 264 268 272 273 275 275 274 274 274 272 265 256 254 251 235 231 246 258 270 269 267 269 273 264 246 242
184 229 251 266 257 255 263 255 233 233 237 245 262 269 267 278 269 265 264 262 264 265 267 273 277 278 273 267 264 264 255 251 233 231 248 263 270 278 263 260 267 271 259 250
197 193 230 263 289 305 268 241 218 222 220 217 242 256 279 282 270 263 265 262 257 261 264 267 269 267 270 267 262 257 255 249 232 239 251 256 259 271 267 262 263 268 260 251
193 195 218 271 338 253 249 191 205 228 246 228 243 270 278 269 274 266 254 250 258 264 270 272 276 280 281 272 266 258 243 223 230 247 258 263 263 271 279 262 258 266 260 246
205 194 206 221 254 269 282 227 187 216 263 232 241 267 283 294 306 281 257 241 251 258 267 271 269 271 280 284 271 243 242 234 242 253 260 261 257 261 270 263 258 261 262 255
197 196 202 206 233 250 256 223 202 154 273 254 229 258 273 299 287 278 311 309 301 303 297 291 296 301 300 298 278 220 254 249 255 260 264 265 255 251 260 266 265 262 258 257
177 200 216 224 238 260 258 203 127 186 262 297 245 257 243 236 246 289 318 321 310 306 311 309 310 314 303 304 298 266 272 264 268 277 279 275 263 259 260 267 268 267 267 267
189 192 207 202 227 253 184 141 186 230 296 289 282 275 255 264 285 308 326 329 332 333 334 340 347 333 333 342 127 282 283 280 281 281 282 281 277 272 271 262 270 262 255 259
204 200 200 204 222 254 173 204 243 281 278 287 288 286 267 274 285 305 318 322 325 330 333 341 350 340 339 341 265 268 287 295 299 304 294 293 291 282 275 257 258 256 244 246
243 206 210 252 261 258 255 260 275 268 265 280 282 279 249 258 276 291 305 320 328 336 336 342 359 349 333 335 324 286 298 299 284 284 288 291 287 286 282 273 261 253 250 247
222 176 212 255 276 300 270 251 260 274 275 284 299 286 260 254 275 284 296 304 310 318 331 343 338 318 313 323 321 316 315 310 287 281 284 288 280 274 272 269 259 261 250 245
195 188 200 243 245 232 266 280 264 255 270 274 287 309 322 268 270 279 279 289 302 316 332 335 330 321 319 325 322 322 322 306 286 292 295 290 285 283 279 280 289 284 283 282
Height
1494 1498 1500 1498 1498 1498 1499 1501 1501 1498 1496 1497 1495 1491 1486 1484 1484 1483 1482 1483 1483 1484 1486 1487 1489 1491 1493 1495 1497 1498 1500 1501 1502 1504 1505 1506 1508 1509 1510 1512 1513 1514 1516 1517
1498 1499 1496 1496 1497 1498 1499 1500 1499 1497 1496 1496 1495 1490 1483 1481 1481 1479 1479 1479 1479 1480 1481 1483 1485 1487 1489 1491 1493 1495 1496 1498 1499 1500 1502 1503 1504 1506 1507 1508 1509 1511 1512 1513
1496 1497 1494 1496 1497 1498 1497 1499 1498 1498 1497 1497 1497 1487 1482 1478 1477 1476 1476 1475 1476 1477 1477 1479 1481 1483 1485 1487 1489 1491 1493 1494 1496 1497 1499 1500 1501 1502 1503 1505 1506 1507 1508 1510
1497 1495 1494 1495 1495 1496 1496 1495 1496 1497 1500 1502 1500 1496 1480 1478 1476 1473 1473 1473 1473 1474 1475 1476 1478 1479 1481 1484 1486 1488 1490 1491 1493 1494 1495 1496 1497 1498 1499 1501 1502 1503 1504 1506
1496 1494 1494 1494 1494 1494 1495 1495 1496 1497 1500 1503 1503 1502 1483 1479 1476 1471 1470 1470 1470 1471 1472 1473 1475 1477 1479 1481 1482 1484 1486 1488 1489 1490 1492 1493 1494 1495 1496 1497 1498 1500 1501 1502
1495 1494 1493 1493 1492 1493 1495 1497 1499 1502 1503 1501 1497 1501 1484 1479 1473 1469 1468 1467 1468 1469 1470 1471 1473 1474 1476 1477 1479 1481 1483 1484 1486 1487 1488 1489 1490 1491 1492 1493 1494 1496 1497 1498
1495 1494 1493 1492 1493 1494 1496 1500 1503 1502 1504 1497 1495 1495 1482 1473 1470 1468 1467 1467 1467 1468 1469 1469 1470 1471 1473 1474 1476 1478 1479 1480 1482 1483 1485 1486 1487 1488 1488 1490 1491 1491 1493 1494
1498 1496 1492 1492 1492 1494 1496 1497 1502 1503 1502 1498 1496 1491 1477 1470 1468 1467 1466 1466 1466 1467 1467 1468 1469 1470 1471 1472 1473 1475 1476 1477 1479 1480 1481 1482 1483 1484 1485 1486 1486 1487 1488 1489
1498 1495 1492 1491 1491 1492 1495 1498 1497 1503 1506 1506 1493 1487 1476 1468 1466 1465 1465 1465 1465 1466 1466 1467 1468 1468 1469 1470 1471 1472 1473 1474 1475 1476 1477 1478 1479 1480 1481 1481 1482 1483 1483 1484
1496 1498 1493 1492 1492 1492 1493 1496 1502 1502 1500 1499 1491 1487 1477 1467 1465 1465 1465 1464 1465 1465 1465 1466 1466 1467 1467 1468 1469 1469 1470 1471 1472 1472 1473 1474 1474 1475 1476 1477 1477 1478 1479 1479
1494 1498 1495 1493 1493 1492 1495 1497 1497 1500 1500 1499 1495 1479 1467 1464 1463 1463 1463 1463 1464 1464 1464 1464 1465 1465 1465 1466 1466 1466 1467 1467 1468 1469 1469 1470 1470 1471 1471 1472 1472 1473 1474 1474
1493 1497 1497 1492 1489 1489 1490 1491 1495 1496 1497 1500 1495 1478 1463 1463 1461 1462 1462 1462 1462 1463 1463 1462 1462 1463 1463 1463 1463 1463 1463 1464 1464 1465 1465 1465 1466 1466 1466 1467 1467 1468 1469 1469
1492 1495 1495 1488 1491 1493 1492 1490 1491 1492 1495 1499 1494 1475 1463 1462 1461 1461 1461 1460 1460 1460 1460 1460 1460 1460 1460 1460 1460 1460 1460 1460 1460 1460 1460 1461 1461 1461 1461 1462 1462 1463 1463 1464
1487 1491 1490 1485 1480 1485 1489 1488 1489 1490 1491 1489 1481 1468 1462 1461 1460 1460 1459 1459 1458 1458 1457 1457 1457 1457 1456 1456 1456 1456 1456 1456 1456 1456 1456 1456 1456 1456 1457 1457 1458 1458 1458 1459
1485 1487 1487 1485 1483 1484 1483 1481 1484 1484 1480 1477 1468 1467 1458 1458 1458 1457 1457 1456 1456 1455 1454 1453 1453 1453 1453 1453 1453 1453 1453 1453 1452 1452 1452 1451 1452 1452 1452 1452 1452 1453 1453 1453
1485 1486 1487 1484 1481 1482 1480 1475 1476 1476 1475 1472 1467 1462 1454 1455 1455 1455 1454 1453 1452 1451 1451 1450 1450 1449 1449 1449 1449 1448 1448 1448 1448 1448 1447 1447 1447 1447 1447 1447 1447 1448 1448 1448
1484 1485 1484 1481 1482 1479 1473 1467 1468 1469 1467 1466 1462 1455 1452 1453 1452 1451 1450 1449 1448 1447 1447 1446 1446 1446 1445 1445 1445 1444 1444 1444 1444 1443 1443 1443 1442 1442 1442 1442 1442 1442 1442 1443
1481 1482 1483 1483 1483 1476 1457 1459 1460 1461 1459 1459 1455 1452 1451 1450 1448 1447 1446 1445 1444 1444 1444 1443 1442 1442 1442 1441 1441 1441 1440 1440 1439 1439 1438 1438 1438 1438 1437 1437 1437 1437 1437 1437
1476 1478 1481 1482 1480 1468 1458 1457 1459 1460 1454 1451 1451 1449 1448 1447 1446 1443 1442 1442 1442 1441 1440 1440 1439 1438 1438 1437 1437 1436 1436 1436 1435 1434 1434 1434 1434 1433 1433 1433 1432 1433 1432 1433
1475 1475 1478 1479 1476 1467 1452 1455 1454 1457 1453 1447 1447 1446 1446 1446 1447 1441 1440 1439 1438 1437 1437 1436 1435 1435 1434 1434 1433 1432 1432 1432 1431 1431 1430 1430 1430 1429 1429 1429 1428 1428 1428 1428
1475 1476 1476 1475 1472 1460 1454 1453 1455 1457 1448 1446 1444 1444 1444 1444 1443 1440 1438 1436 1435 1434 1433 1432 1432 1431 1430 1430 1430 1429 1428 1428 1427 1427 1427 1426 1426 1426 1425 1425 1424 1424 1424 1424
1468 1471 1473 1472 1469 1458 1452 1452 1453 1447 1444 1444 1442 1442 1441 1440 1438 1437 1435 1433 1432 1431 1430 1429 1428 1428 1427 1427 1427 1426 1425 1425 1424 1423 1423 1422 1422 1421 1421 1420 1420 1420 1420 1419
1462 1461 1460 1459 1453 1448 1447 1446 1445 1444 1443 1442 1441 1439 1439 1437 1436 1434 1433 1431 1430 1429 1428 1427 1426 1425 1424 1424 1424 1423 1422 1421 1420 1419 1419 1418 1418 1417 1417 1416 1416 1415 1415 1415
1458 1457 1458 1456 1447 1445 1444 1443 1442 1442 1441 1439 1439 1437 1436 1434 1433 1432 1430 1429 1428 1426 1425 1424 1423 1422 1421 1421 1420 1420 1419 1418 1417 1416 1415 1414 1413 1413 1412 1412 1412 1411 1411 1410
1454 1456 1455 1452 1445 1442 1439 1439 1439 1438 1437 1436 1435 1434 1433 1432 1430 1429 1428 1427 1425 1424 1423 1422 1421 1419 1418 1418 1417 1416 1415 1414 1413 1412 1411 1410 1409 1409 1408 1408 1407 1407 1407 1407
1449 1450 1451 1443 1439 1440 1437 1436 1436 1435 1434 1433 1432 1431 1430 1429 1428 1427 1425 1425 1423 1422 1421 1420 1418 1417 1416 1415 1414 1413 1412 1411 1410 1408 1407 1406 1405 1405 1404 1403 1403 1403 1403 1402